SL-3 DEB, 21126

Orbit data source: Space-Track

SL-3 DEB, 21126 is space debris in LEO originally from a launch on Fri, 28 Aug 1964 UTC launched from the Tyuratam Missile And Space Complex (TTMTR). Debris objects in space refer to the collection of defunct objects orbiting the Earth. Examples of debris include non-operational satellites, rocket bodies, and fragments generated from explosions, collisions, or faulty payload assembly.

Loading next visibility...
Identifier
21126, 1964-053C
Orbit
LEO
Country
Flag of CISCIS
Related business
Manufacturer
Unknown
Mission
Spacecraft
Bus & Motor
Unknown
Mass
Unknown
Launch date (UTC)
1964-08-28 (62 years ago)
Launch vehicle
Unknown
Launch site
Tyuratam Missile And Space Complex (TTMTR)
Object type
Payload
Rocket body
Debris
Shape & HBR
Unknown shape, 0.1 m
Radar Cross Section
Small (<0.1 m²)

Expand to show TLE details & history
Last TLE update: 12 hours ago

TLE from 12 hours ago
0 SL-3 DEB
1 21126U 64053C   26072.34453398  .00001029  00000-0  18740-3 0  9991
2 21126  65.0761  75.5229 0072761 265.5689 202.3694 14.69595330251866
Epoch: 2026-03-13T08:16Z
TLE epoch observation values (Epoch: 2026-03-13T08:16:07.735Z)
Latitude
59.92548°
Longitude
-92.44553°
Altitude
718.993 km
Speed
7.477 km/s
True Right ascension
13h 30m 16s
True Declination
59° 46' 31"
Sunlit
Object was in full shadow at epoch
Visualization orbit readout
Latitude
Unknown
Longitude
Unknown
Altitude
Unknown
Speed
Unknown
Apparent Right ascension
Unknown
Apparent Declination
Unknown
Sunlit
N/A
Visualization observer readout
Local Sidereal Time
01:04:10
Azimuth
Unknown
Elevation
Unknown
Doppler factor
Unknown
Orbital elements
Apogee altitude
712.12 km
Perigee altitude
609.687 km
Semi-major axis
7,039.04 km
Eccentricity
0.00728
Inclination
65.0761°
RAAN
75.5229°
Arg. of periapsis
265.5689°
True anomaly
202.05473°
Mean anomaly
202.3694°
Eccentric anomaly
202.2118°
Mean motion
3.67513 °/min
Orbital period
97.96 mins
BSTAR
0.0001874
Loading maneuver chart data...
Computing Atmospheric mass density...
Loading historical data...
Loading historical data...
Loading historical data...
Loading historical data...
Loading historical data...
Loading historical data...
Loading historical data...
Other satellites on launch #53 in the year 1964 (1964-08-28 UTC)

Documentation

Showing up to 5 results
|